Regional Weather Roundup
Issued by NWS

Home | Current Version | Previous Version | Text Only | Print | Product List | Glossary Off
Versions: 1 2 3 4 5 6 7 8 9 10 11 12 13 14 15 16 17 18 19 20 21 22 23 24 25 26 27 28 29 30 31 32 33 34 35 36 37 38 39 40 41 42 43 44 45 46 47 48 49 50

000
ASUS43 KMPX 040601
RWRMN
WEATHER ROUNDUP FOR MINNESOTA
NATIONAL WEATHER SERVICE TWIN CITIES/CHANHASSEN MN
100 AM CDT WED MAY 04 2016


NOTE: "FAIR" INDICATES FEW OR NO CLOUDS BELOW 12,000 FEET WITH NO
SIGNIFICANT WEATHER AND/OR OBSTRUCTIONS TO VISIBILITY. N/A MEANS
CURRENT SKY AND/OR WEATHER CONDITIONS ARE NOT AVAILABLE.

MNZ060>063-068>070-040700-
   Twin Cities Metro

CITY           SKY/WX    TMP DP  RH WIND       PRES   REMARKS
TWIN CITIES    CLEAR     56  31  38 N13       29.84R
6HR MIN TEMP:  56; 6HR MAX TEMP:  72;

ST PAUL        CLEAR     56  32  40 N10       29.84R
CRYSTAL        PTCLDY    56  32  40 N13G18    29.84R
BLAINE         PTCLDY    54  34  47 N12       29.85R
EDEN PRAIRIE   CLEAR     56  30  37 N9        29.83R
6HR MIN TEMP:  56; 6HR MAX TEMP:  72;

SOUTH ST PAUL  CLEAR     57  30  36 N9        29.83R
LAKE ELMO      FAIR      54  34  47 NE13G20   29.84R
$$
MNZ001>005-007-008-013>017-022>024-027-028-040700-
   Northwest Minnesota

CITY           SKY/WX    TMP DP  RH WIND       PRES   REMARKS
BEMIDJI        CLEAR     44  32  62 CALM      29.96R
HALLOCK        CLEAR     43  30  61 N6        30.03R
ROSEAU         CLEAR     43  36  75 N8        30.00R
WARROAD        CLEAR     43  37  81 NW8       30.00R
THIEF RVR FALL CLEAR     45  34  65 N7        30.01S
CROOKSTON      CLEAR     45  34  65 N6        30.01S
FOSSTON        CLEAR     41  34  75 N6        29.99R
DETROIT LAKES  CLEAR     46  36  66 N12       29.98R
MOORHEAD       CLEAR     48  28  46 N13       29.99S
PARK RAPIDS    CLEAR     50  33  52 N7        29.94R
MAHNOMEN       FAIR      46  36  67 N10       29.97R
$$
MNZ006-009>011-018-025>026-040700-
   North Central Minnesota

CITY           SKY/WX    TMP DP  RH WIND       PRES   REMARKS
BAUDETTE       PTCLDY    44  33  65 N7        29.97R
FLAG ISLAND    CLEAR     48  37  66 N7        29.98S
INTL FALLS     CLEAR     34  29  82 NW6       29.94R WCI  29
6HR MIN TEMP:  32; 6HR MAX TEMP:  57;

WASKISH        CLEAR     45  34  65 CALM      29.96S
BIG FORK       CLEAR     39  30  70 CALM      29.94S
LONGVILLE      CLEAR     45  34  65 CALM      29.94R
GRAND RAPIDS   CLEAR     45  28  53 N5        29.94R
CRANE LAKE     CLEAR     30  28  93 CALM      29.93S
ORR            CLEAR     39  30  70 CALM      29.90S
COOK           CLEAR     39  30  70 CALM      29.92S
WALKER         FAIR      46  33  59 N6        29.95R
$$
MNZ012-019>021-037-040700-
   Northeast Minnesota

CITY           SKY/WX    TMP DP  RH WIND       PRES   REMARKS
DULUTH         CLEAR     46  32  58 N9        29.89R
6HR MIN TEMP:  46; 6HR MAX TEMP:  62;

ELY            CLEAR     43  30  61 NW6       29.89S
HIBBING        CLEAR     35  29  78 NW5       29.91R WCI  31
EVELETH        CLEAR     45  30  57 N5        29.91S
DULUTH HARBOR  CLEAR     46  36  66 NE13      29.89R
TWO HARBORS    PTCLDY    48  36  61 NW6       29.86R
SILVER BAY     CLEAR     45  30  57 NW6       29.85S
GRAND MARAIS     N/A     46  32  58 CALM      29.83R
G MARAIS ARPRT PTCLDY    39  28  65 NW7       29.82S
$$
MNZ029>031-032-039>041-046>048-054>057-064-040700-
   West Central Minnesota

CITY           SKY/WX    TMP DP  RH WIND       PRES   REMARKS
FERGUS FALLS   CLEAR     50  34  53 N8        29.95R
WHEATON        CLEAR     48  34  57 NW10      29.99R
MORRIS         CLEAR     48  30  49 N10       29.94R
ALEXANDRIA     CLEAR     51  32  48 N12       29.94R
ELBOW LAKE     FAIR      50  36  57 N9        29.96R
WADENA         CLEAR     45  32  61 NW6       29.94R
GLENWOOD       CLEAR     48  32  53 N8        29.93R
APPLETON       CLEAR     50  30  46 N9        29.93R
BENSON         CLEAR     45  28  53 N8        29.93R
ORTONVILLE     CLEAR     50  30  46 N13       29.95R
MADISON        CLEAR     50  30  46 N13       29.94R
WILLMAR        FAIR      52  34  50 N12       29.92R
$$
MNZ033>034-036-042>043-049>051-058-059-040700-
   Central Minnesota

CITY           SKY/WX    TMP DP  RH WIND       PRES   REMARKS
ST CLOUD       CLEAR     49  33  54 N7        29.89R
6HR MIN TEMP:  49; 6HR MAX TEMP:  67;

SAUK CENTRE    FAIR      49  33  53 N9        29.92R
PAYNESVILLE    CLEAR     51  31  46 N9        29.91R
AITKIN         PTCLDY    46  28  49 N6        29.91R
PINE RIVER     CLEAR     48  34  57 N3        29.97R
BRAINERD       CLEAR     50  32  50 NE8       29.93R
STAPLES        CLEAR     48  32  53 N6        29.93R
LONG PRAIRIE   FAIR      48  32  53 NW7       29.92R
LITTLE FALLS   CLEAR     50  32  50 CALM      29.92R
LITCHFIELD     CLEAR     52  32  46 N9        29.89R
BUFFALO        CLEAR     53  32  43 N9        29.88R
MAPLE LAKE     CLEAR     53  35  50 N10       29.89R
HUTCHINSON     CLEAR     53  34  48 N10G18    29.88R
$$
MNZ037-044-045-052-053-040700-
   East Central Minnesota

CITY           SKY/WX    TMP DP  RH WIND       PRES   REMARKS
PRINCETON      PTCLDY    54  34  47 N8        29.88R
MORA           PTCLDY    50  32  50 N6        29.90R
CAMBRIDGE      PTCLDY    55  36  47 N12G20    29.86R
RUSH CITY      PTCLDY    50  33  52 N10G18    29.87R
MOOSE LAKE     CLEAR     46  32  57 N8        29.88R
HINCKLEY       CLOUDY    50  34  53 N10       29.88R
CLOQUET        CLEAR     45  30  57 N10       29.90R
MCGREGOR       CLEAR     48  32  53 N7        29.92R
$$
MNZ071>073-080-081-089-090-097-098-040700-
   Southwest Minnesota

CITY           SKY/WX    TMP DP  RH WIND       PRES   REMARKS
MONTEVIDEO     CLEAR     52  30  43 NE12      29.93R
GRANITE FALLS  CLEAR     53  32  44 N12       29.92R
CANBY          CLEAR     50  35  55 W9        29.95R
MARSHALL       CLEAR     49  30  48 NW10      29.92R
REDWOOD FALLS  CLEAR     53  28  38 N10       29.88R
OLIVIA         CLEAR     50  32  50 N10       29.89R
PIPESTONE      CLEAR     50  28  43 N10       29.92R
WINDOM         CLEAR     48  30  49 NW13      29.88R
WORTHINGTON    CLEAR     48  34  58 N13       29.90R
JACKSON        CLEAR     52  30  43 N13       29.87R
TRACY          CLEAR     51  32  48 NW10      29.91R
SLAYTON        CLEAR     51  30  44 N16       29.90R
$$
MNZ065>067-074>077-082>085-091>093-040700-
   South Central Minnesota

CITY           SKY/WX    TMP DP  RH WIND       PRES   REMARKS
MANKATO        CLEAR     54  28  37 N14       29.83R
NEW ULM        CLEAR     54  27  35 N10       29.84R
ST JAMES       CLEAR     48  27  43 NW14      29.86R
FAIRMONT       CLEAR     52  30  43 NW10      29.83R
GLENCOE        CLEAR     53  35  51 N10       29.85R
OWATONNA       CLEAR     52  28  40 N9        29.81R
WASECA         CLEAR     52  30  43 N12       29.82R
ALBERT LEA     CLEAR     54  30  40 N10G16    29.79R
$$
MNZ078>079-086>088-094>096-040700-
   Southeast Minnesota

CITY           SKY/WX    TMP DP  RH WIND       PRES   REMARKS
ROCHESTER      CLEAR     50  41  71 N10       29.79R
6HR MIN TEMP:  50; 6HR MAX TEMP:  65; 6HR PCP:  0.01;

RED WING       CLEAR     55  30  38 N8        29.80R
STANTON        CLEAR     55  31  40 N13       29.80R
DODGE CENTER   PTCLDY    48  34  57 N7        29.80R
WINONA         CLEAR     54  43  66 CALM      29.77R
AUSTIN         CLEAR     52  34  50 N7        29.78R
PRESTON        CLEAR     49  41  74 N8        29.76R
$$
ABBREVIATIONS USED IN REMARKS
   TC - TEMPERATURES IN CELSIUS
  WCI - WIND CHILL INDEX
   HX - HEAT INDEX
  VSB - VISIBILITY
$$



USA.gov is the U.S. government's official web portal to all federal, state and local government web resources and services.